Celoron, NY

4:03 PM EDT on July 23, 2016 (GMT -0400)
Chautauqua County-Jamestown

Weather History for KJHW - September, 2013

Change the Weather History Date:

Tuesday, September 3, 2013

  Actual Average Record
Temperature  
Mean Temperature 56 °F -  
Max Temperature 60 °F 76 °F 90 °F (1991)
Min Temperature 53 °F 49 °F 33 °F (1985)
Degree Days  
Heating Degree Days 8    
Growing Degree Days 6 (Base 50)    
Moisture  
Dew Point 54 °F    
Average Humidity 93    
Maximum Humidity 100    
Minimum Humidity 77    
Precipitation  
Precipitation 0.04 in - - ()
Sea Level Pressure  
Sea Level Pressure 29.93 in    
Wind  
Wind Speed 7 mph (West)    
Max Wind Speed 15 mph    
Max Gust Speed 20 mph    
Visibility 8 miles    
Events      
Averages and records for this station are not official NWS values.
T = Trace of Precipitation, MM = Missing Value Source: NWS Daily Summary

Daily Weather History Graph

Daily Weather History Graph

Search for Another Location

Airport or City:

Trip Planner

Search our weather history database for the weather conditions in past years. The results will help you decide how hot, cold, wet, or windy it might be!

Date:

Astronomy

Sep. 03, 2013 Rise Set
Actual Time 6:44 AM EDT 7:47 PM EDT
Civil Twilight 6:16 AM EDT 8:15 PM EDT
Nautical Twilight 5:41 AM EDT 8:49 PM EDT
Astronomical Twilight 5:06 AM EDT 9:25 PM EDT
Moon 4:56 AM EDT (9/3) 6:33 PM EDT (9/3)
Length of Visible Light 13h 59m
Length of Day
13h 02m
Waning Crescent, 3% of the Moon is Illuminated
Sep 3
Waning Crescent
Sep 5
New
Sep 12
First Quarter
Sep 19
Full
Sep 26
Last Quarter

Hourly Weather History & Observations

Time (EDT) Temp. Dew Point Humidity Pressure Visibility Wind Dir Wind Speed Gust Speed Precip Events Conditions
12:15 AM 60.8 °F 55.4 °F 82% 29.86 in 10.0 mi NNW 6.9 mph - N/A   Overcast
12:35 AM 60.8 °F 53.6 °F 77% 29.87 in 10.0 mi WNW 5.8 mph - N/A   Overcast
12:55 AM 60.8 °F 53.6 °F 77% 29.87 in 10.0 mi WNW 4.6 mph - N/A   Overcast
1:15 AM 60.8 °F 53.6 °F 77% 29.86 in 10.0 mi NW 4.6 mph - N/A   Overcast
1:35 AM 60.8 °F 53.6 °F 77% 29.86 in 10.0 mi WNW 4.6 mph - N/A   Overcast
1:55 AM 60.8 °F 53.6 °F 77% 29.86 in 10.0 mi West 5.8 mph - N/A   Overcast
2:15 AM 59.0 °F 53.6 °F 82% 29.86 in 10.0 mi West 5.8 mph - N/A   Overcast
2:35 AM 59.0 °F 53.6 °F 82% 29.85 in 10.0 mi West 6.9 mph - N/A   Overcast
2:55 AM 59.0 °F 53.6 °F 82% 29.86 in 10.0 mi West 5.8 mph - N/A   Overcast
3:15 AM 59.0 °F 53.6 °F 82% 29.86 in 10.0 mi West 5.8 mph - N/A   Mostly Cloudy
3:35 AM 59.0 °F 55.4 °F 88% 29.85 in 10.0 mi NW 5.8 mph - N/A   Overcast
3:55 AM 59.0 °F 55.4 °F 88% 29.86 in 10.0 mi WNW 6.9 mph - N/A   Overcast
4:15 AM 59.0 °F 53.6 °F 82% 29.86 in 10.0 mi West 5.8 mph - N/A   Overcast
4:35 AM 57.2 °F 53.6 °F 88% 29.86 in 10.0 mi West 8.1 mph - N/A   Mostly Cloudy
4:55 AM 57.2 °F 53.6 °F 88% 29.86 in 10.0 mi West 5.8 mph - N/A   Mostly Cloudy
5:15 AM 57.2 °F 53.6 °F 88% 29.86 in 10.0 mi WNW 5.8 mph - N/A   Overcast
5:35 AM 57.2 °F 53.6 °F 88% 29.87 in 10.0 mi NNW 5.8 mph - N/A   Mostly Cloudy
5:55 AM 53.6 °F 53.6 °F 100% 29.87 in 10.0 mi WNW 9.2 mph - N/A   Overcast
6:15 AM 57.2 °F 53.6 °F 88% 29.88 in 10.0 mi WNW 5.8 mph - N/A   Mostly Cloudy
6:35 AM 57.2 °F 53.6 °F 88% 29.88 in 10.0 mi West 3.5 mph - N/A   Overcast
6:55 AM 57.2 °F 53.6 °F 88% 29.89 in 9.0 mi West 5.8 mph - N/A   Overcast
7:15 AM 57.2 °F 53.6 °F 88% 29.89 in 8.0 mi West 5.8 mph - N/A   Overcast
7:35 AM 55.4 °F 53.6 °F 94% 29.90 in 4.0 mi West 8.1 mph - N/A   Overcast
7:55 AM 53.6 °F 51.8 °F 94% 29.91 in 3.0 mi West 9.2 mph - N/A   Mostly Cloudy
8:15 AM 55.4 °F 53.6 °F 94% 29.91 in 10.0 mi West 10.4 mph - N/A   Mostly Cloudy
8:35 AM 57.2 °F 53.6 °F 88% 29.91 in 3.0 mi West 9.2 mph - N/A   Mostly Cloudy
8:55 AM 55.4 °F 53.6 °F 94% 29.91 in 2.5 mi WNW 9.2 mph - N/A   Overcast
9:15 AM 55.4 °F 53.6 °F 94% 29.92 in 2.5 mi West 6.9 mph - 0.02 in   Overcast
9:35 AM 53.6 °F 53.6 °F 100% 29.92 in 2.5 mi West 10.4 mph - 0.02 in   Overcast
9:55 AM 53.6 °F 53.6 °F 100% 29.93 in 2.5 mi West 6.9 mph - 0.02 in   Overcast
10:15 AM 53.6 °F 53.6 °F 100% 29.93 in 1.8 mi WNW 11.5 mph - 0.01 in   Overcast
10:35 AM 53.6 °F 53.6 °F 100% 29.93 in 3.0 mi West 11.5 mph 19.6 mph 0.01 in   Overcast
10:55 AM 53.6 °F 53.6 °F 100% 29.94 in 1.8 mi West 9.2 mph 19.6 mph 0.01 in   Overcast
11:15 AM 53.6 °F 53.6 °F 100% 29.95 in 1.8 mi WNW 11.5 mph 18.4 mph N/A   Overcast
11:35 AM 53.6 °F 53.6 °F 100% 29.95 in 5.0 mi West 10.4 mph - N/A   Overcast
11:55 AM 53.6 °F 53.6 °F 100% 29.95 in 9.0 mi West 10.4 mph - N/A   Overcast
12:15 PM 55.4 °F 55.4 °F 100% 29.95 in 10.0 mi West 8.1 mph - N/A   Mostly Cloudy
12:35 PM 55.4 °F 53.6 °F 94% 29.95 in 10.0 mi West 15.0 mph 18.4 mph N/A   Overcast
12:55 PM 55.4 °F 55.4 °F 100% 29.95 in 9.0 mi West 11.5 mph - N/A   Overcast
1:15 PM 55.4 °F 55.4 °F 100% 29.95 in 7.0 mi West 10.4 mph - N/A   Overcast
1:35 PM 55.4 °F 55.4 °F 100% 29.95 in 5.0 mi WSW 12.7 mph 16.1 mph N/A   Overcast
1:55 PM 55.4 °F 53.6 °F 94% 29.95 in 4.0 mi West 9.2 mph - 0.01 in   Overcast
2:15 PM 55.4 °F 53.6 °F 94% 29.95 in 2.5 mi West 12.7 mph 19.6 mph N/A   Overcast
2:35 PM 55.4 °F 55.4 °F 100% 29.95 in 4.0 mi West 11.5 mph - N/A   Overcast
2:55 PM 55.4 °F 53.6 °F 94% 29.95 in 3.0 mi West 10.4 mph - N/A   Mostly Cloudy
3:15 PM 55.4 °F 53.6 °F 94% 29.95 in 4.0 mi West 10.4 mph - N/A   Overcast
3:35 PM 55.4 °F 53.6 °F 94% 29.95 in 10.0 mi West 13.8 mph - N/A   Overcast
3:55 PM 55.4 °F 53.6 °F 94% 29.95 in 10.0 mi West 8.1 mph - N/A   Overcast
4:15 PM 55.4 °F 53.6 °F 94% 29.95 in 9.0 mi West 9.2 mph - N/A   Overcast
4:35 PM 55.4 °F 53.6 °F 94% 29.95 in 10.0 mi West 6.9 mph - N/A   Overcast
4:55 PM 55.4 °F 53.6 °F 94% 29.96 in 10.0 mi West 9.2 mph - N/A   Overcast
5:15 PM 55.4 °F 53.6 °F 94% 29.96 in 10.0 mi West 11.5 mph - N/A   Overcast
5:35 PM 55.4 °F 55.4 °F 100% 29.96 in 10.0 mi WNW 11.5 mph - N/A   Overcast
5:55 PM 57.2 °F 55.4 °F 94% 29.97 in 10.0 mi WNW 12.7 mph - N/A   Overcast
6:15 PM 57.2 °F 55.4 °F 94% 29.97 in 10.0 mi WNW 8.1 mph - N/A   Overcast
6:35 PM 55.4 °F 55.4 °F 100% 29.97 in 10.0 mi West 9.2 mph - N/A   Overcast
6:55 PM 55.4 °F 53.6 °F 94% 29.97 in 10.0 mi West 11.5 mph - N/A   Overcast
7:15 PM 55.4 °F 55.4 °F 100% 29.97 in 10.0 mi West 10.4 mph 18.4 mph N/A   Overcast
7:35 PM 55.4 °F 53.6 °F 94% 29.97 in 10.0 mi West 9.2 mph - N/A   Overcast
7:55 PM 55.4 °F 55.4 °F 100% 29.98 in 10.0 mi West 6.9 mph - N/A   Overcast
8:15 PM 55.4 °F 55.4 °F 100% 29.99 in 10.0 mi West 6.9 mph - N/A   Overcast
8:35 PM 55.4 °F 55.4 °F 100% 30.00 in 10.0 mi West 6.9 mph - N/A   Mostly Cloudy
8:55 PM 55.4 °F 53.6 °F 94% 30.00 in 10.0 mi West 5.8 mph - N/A   Clear
9:15 PM 55.4 °F 53.6 °F 94% 30.01 in 10.0 mi WSW 6.9 mph - N/A   Partly Cloudy
9:35 PM 53.6 °F 53.6 °F 100% 30.01 in 10.0 mi WSW 5.8 mph - N/A   Partly Cloudy
9:55 PM 55.4 °F 53.6 °F 94% 30.01 in 10.0 mi WSW 4.6 mph - N/A   Clear
10:15 PM 55.4 °F 53.6 °F 94% 30.01 in 10.0 mi SW 3.5 mph - N/A   Clear
10:35 PM 55.4 °F 53.6 °F 94% 30.02 in 5.0 mi SSW 3.5 mph - N/A   Clear
10:55 PM 55.4 °F 53.6 °F 94% 30.02 in 9.0 mi SW 3.5 mph - N/A   Clear
11:15 PM 53.6 °F 53.6 °F 100% 30.03 in 1.5 mi SSW 4.6 mph - N/A   Clear
11:35 PM 55.4 °F 53.6 °F 94% 30.03 in 3.0 mi SW 3.5 mph - N/A   Clear
11:55 PM 55.4 °F 53.6 °F 94% 30.04 in 0.5 mi SSW 3.5 mph - N/A   Scattered Clouds